TimeMDT,TemperatureF,Dew PointF,Humidity,Sea Level PressureIn,VisibilityMPH,Wind Direction,Wind SpeedMPH,Gust SpeedMPH,PrecipitationIn,Events,Conditions,WindDirDegrees,DateUTC
12:53 AM,37.0,28.0,70,30.04,10.0,West,9.2,-,N/A,,Clear,270,2012-11-01 06:53:00
1:53 AM,39.9,28.0,63,30.02,10.0,WNW,6.9,-,N/A,,Clear,290,2012-11-01 07:53:00
2:53 AM,37.9,28.0,68,30.00,10.0,West,6.9,-,N/A,,Clear,270,2012-11-01 08:53:00
3:53 AM,37.9,27.0,65,29.98,10.0,West,4.6,-,N/A,,Clear,270,2012-11-01 09:53:00
4:53 AM,35.6,28.4,75,30.10,10.0,West,8.1,-,N/A,,Clear,270,2012-11-01 10:53:00
5:53 AM,37.0,26.1,65,29.99,10.0,WSW,4.6,-,N/A,,Clear,240,2012-11-01 11:53:00
6:53 AM,39.9,27.0,60,29.99,10.0,West,6.9,-,0.00,,Clear,280,2012-11-01 12:53:00
7:53 AM,39.0,27.0,62,30.02,10.0,West,8.1,-,0.00,,Clear,270,2012-11-01 13:53:00
8:53 AM,43.0,28.0,56,30.01,10.0,West,10.4,-,N/A,,Clear,280,2012-11-01 14:53:00
9:53 AM,52.0,30.0,43,29.98,10.0,West,9.2,-,0.00,,Clear,280,2012-11-01 15:53:00
10:53 AM,57.9,28.9,33,29.96,10.0,WNW,8.1,-,N/A,,Clear,290,2012-11-01 16:53:00
11:53 AM,61.0,21.0,21,29.92,10.0,West,10.4,-,N/A,,Clear,260,2012-11-01 17:53:00
12:53 PM,62.1,21.0,21,29.89,10.0,West,8.1,-,N/A,,Clear,270,2012-11-01 18:53:00
1:53 PM,62.1,18.0,18,29.87,10.0,West,16.1,21.9,N/A,,Clear,270,2012-11-01 19:53:00
2:53 PM,62.1,19.0,19,29.86,10.0,West,8.1,-,N/A,,Clear,280,2012-11-01 20:53:00
3:53 PM,61.0,19.0,20,29.86,10.0,SW,4.6,-,N/A,,Clear,230,2012-11-01 21:53:00
4:53 PM,57.9,21.0,24,29.88,10.0,SW,4.6,-,N/A,,Clear,230,2012-11-01 22:53:00
5:53 PM,53.1,34.0,48,29.90,10.0,South,8.1,-,N/A,,Clear,190,2012-11-01 23:53:00
6:53 PM,50.0,34.0,54,29.91,10.0,SW,6.9,-,N/A,,Clear,220,2012-11-02 00:53:00
7:53 PM,53.1,28.0,38,29.91,10.0,WSW,8.1,-,N/A,,Clear,240,2012-11-02 01:53:00
8:53 PM,51.1,26.1,38,29.89,10.0,Calm,Calm,-,N/A,,Clear,0,2012-11-02 02:53:00
9:53 PM,48.9,26.1,41,29.85,10.0,WSW,9.2,-,N/A,,Clear,240,2012-11-02 03:53:00
10:53 PM,46.9,21.9,37,29.84,10.0,WNW,10.4,-,N/A,,Clear,290,2012-11-02 04:53:00
11:53 PM,46.0,21.9,39,29.83,10.0,West,12.7,-,N/A,,Mostly Cloudy,280,2012-11-02 05:53:00